Weather History for KTVC - March, 2014

Change the Weather History Date:

Saturday, March 1, 2014

  Actual Average Record
Temperature  
Mean Temperature 11 °F 26 °F  
Max Temperature 17 °F 34 °F 54 °F (2000)
Min Temperature 5 °F 17 °F -27 °F (1962)
Degree Days  
Heating Degree Days 54 39  
Month to date heating degree days 54 39  
Since 1 July heating degree days 5776 5379  
Moisture  
Dew Point 5 °F    
Average Humidity 71    
Maximum Humidity 88    
Minimum Humidity 53    
Precipitation  
Precipitation 0.01 in 0.06 in 0.66 in (1972)
Month to date precipitation 0.01 0.06  
Year to date precipitation 1.43 4.38  
Snow  
Snow 0.00 in - - ()
Snow Depth 24.00 in    
Sea Level Pressure  
Sea Level Pressure 30.15 in    
Wind  
Wind Speed 8 mph (NNW)    
Max Wind Speed 14 mph    
Max Gust Speed 21 mph    
Visibility 6 miles    
Events Snow    
T = Trace of Precipitation, MM = Missing Value Source: NWS Daily Summary

Daily Weather History Graph

Daily Weather History Graph

Search for Another Location

Airport or City:

Trip Planner

Search our weather history database for the weather conditions in past years. The results will help you decide how hot, cold, wet, or windy it might be!

Date:

Astronomy

Mar. 01, 2014 Rise Set
Actual Time 7:19 AM EST 6:30 PM EST
Civil Twilight 6:50 AM EST 6:59 PM EST
Nautical Twilight 6:16 AM EST 7:33 PM EST
Astronomical Twilight 5:42 AM EST 8:07 PM EST
Moon 7:11 AM EST (3/1) 7:20 PM EST (3/1)
Length of Visible Light 12h 08m
Length of Day
11h 10m
New Moon, 0% of the Moon is Illuminated
Mar 1
New Moon
Mar 8
First Quarter
Mar 16
Full
Mar 23
Last Quarter
Mar 30
New

Hourly Weather History & Observations

Time (EST) Temp. Windchill Dew Point Humidity Pressure Visibility Wind Dir Wind Speed Gust Speed Precip Events Conditions
12:40 AM 16.0 °F 7.4 °F 9.0 °F 74% 29.98 in 9.0 mi SW 5.8 mph - N/A   Overcast
12:53 AM 16.0 °F 7.4 °F 9.0 °F 74% 30.02 in 10.0 mi SSW 5.8 mph - N/A   Overcast
1:20 AM 17.1 °F 8.7 °F 9.0 °F 71% 29.99 in 9.0 mi WSW 5.8 mph - N/A   Overcast
1:27 AM 17.1 °F 10.0 °F 9.0 °F 71% 29.99 in 8.0 mi SW 4.6 mph - N/A   Overcast
1:34 AM 17.1 °F 8.7 °F 10.0 °F 74% 29.99 in 7.0 mi WSW 5.8 mph - N/A   Overcast
1:53 AM 16.0 °F 10.4 °F 10.0 °F 77% 30.03 in 3.0 mi WSW 3.5 mph - N/A   Haze
2:02 AM 16.0 °F 8.8 °F 10.0 °F 77% 29.99 in 2.0 mi West 4.6 mph - 0.00 in Snow Light Snow
2:25 AM 16.0 °F 8.8 °F 10.9 °F 81% 30.00 in 3.0 mi SW 4.6 mph - 0.00 in   Haze
2:53 AM 16.0 °F 7.4 °F 10.9 °F 81% 30.04 in 1.8 mi WSW 5.8 mph - 0.00 in Snow Light Snow
3:03 AM 16.0 °F 8.8 °F 10.9 °F 81% 30.00 in 2.0 mi WSW 4.6 mph - 0.00 in Snow Light Snow
3:11 AM 16.0 °F 8.8 °F 12.0 °F 84% 30.00 in 1.2 mi WSW 4.6 mph - 0.00 in Snow Light Snow
3:36 AM 16.0 °F - 12.0 °F 84% 30.00 in 2.0 mi Calm Calm - 0.00 in Snow Light Snow
3:53 AM 16.0 °F - 12.0 °F 84% 30.04 in 2.0 mi Calm Calm - 0.00 in Snow Light Snow
4:04 AM 16.0 °F - 12.0 °F 84% 30.00 in 1.8 mi Calm Calm - 0.01 in Snow Light Snow
4:53 AM 16.0 °F 4.4 °F 10.9 °F 81% 30.06 in 1.8 mi NNW 9.2 mph - 0.01 in Snow Light Snow
4:58 AM 16.0 °F 5.3 °F 10.9 °F 81% 30.02 in 2.0 mi NNW 8.1 mph - 0.00 in Snow Light Snow
5:21 AM 15.1 °F 2.5 °F 10.9 °F 84% 30.03 in 1.5 mi North 10.4 mph - 0.00 in Snow Light Snow
5:30 AM 14.0 °F 3.9 °F 10.0 °F 84% 30.04 in 2.0 mi North 6.9 mph - 0.00 in Snow Light Snow
5:43 AM 14.0 °F 1.2 °F 9.0 °F 80% 30.05 in 4.0 mi North 10.4 mph - 0.00 in Snow Light Snow
5:53 AM 12.9 °F 2.6 °F 8.1 °F 81% 30.10 in 5.0 mi North 6.9 mph - 0.00 in   Haze
6:53 AM 12.0 °F -0.4 °F 3.0 °F 67% 30.13 in 10.0 mi NNW 9.2 mph - N/A   Overcast
7:21 AM 10.9 °F 1.4 °F 1.0 °F 64% 30.11 in 10.0 mi NNW 5.8 mph - N/A   Mostly Cloudy
7:53 AM 10.0 °F 3.6 °F 1.0 °F 67% 30.14 in 10.0 mi NNW 3.5 mph - N/A   Mostly Cloudy
8:53 AM 10.9 °F -1.8 °F 1.0 °F 64% 30.18 in 10.0 mi NW 9.2 mph - N/A   Mostly Cloudy
9:53 AM 10.9 °F -1.8 °F 1.0 °F 64% 30.21 in 10.0 mi NNW 9.2 mph - N/A   Overcast
10:53 AM 10.9 °F -2.6 °F 1.0 °F 64% 30.23 in 10.0 mi NNW 10.4 mph - N/A   Scattered Clouds
11:53 AM 10.9 °F -1.8 °F 1.0 °F 64% 30.24 in 10.0 mi NNW 9.2 mph - N/A   Scattered Clouds
12:53 PM 12.0 °F -0.4 °F 1.0 °F 61% 30.24 in 10.0 mi NNW 9.2 mph - N/A   Mostly Cloudy
1:53 PM 12.0 °F -1.3 °F -0.0 °F 59% 30.24 in 10.0 mi NW 10.4 mph - N/A   Mostly Cloudy
2:53 PM 12.0 °F -0.4 °F -2.0 °F 53% 30.25 in 10.0 mi NNW 9.2 mph - N/A   Overcast
3:53 PM 10.9 °F -1.8 °F 1.0 °F 64% 30.26 in 3.0 mi North 9.2 mph - 0.00 in Snow Light Snow
4:05 PM 10.0 °F -1.9 °F 1.9 °F 70% 30.23 in 2.0 mi North 8.1 mph - 0.00 in Snow Light Snow
4:19 PM 10.0 °F -1.9 °F 3.0 °F 73% 30.22 in 1.0 mi NNW 8.1 mph - 0.00 in Snow Light Snow
4:53 PM 10.0 °F 0.4 °F 3.9 °F 76% 30.27 in 1.5 mi North 5.8 mph - 0.00 in Snow Light Snow
4:58 PM 10.0 °F -2.9 °F 3.0 °F 73% 30.24 in 3.0 mi North 9.2 mph - 0.00 in Snow Light Snow
5:19 PM 10.0 °F -0.9 °F 3.9 °F 76% 30.24 in 2.0 mi North 6.9 mph - 0.00 in Snow Light Snow
5:51 PM 10.4 °F -0.4 °F 3.2 °F 73% 30.26 in 3.0 mi North 6.9 mph - 0.00 in Snow Light Snow
5:53 PM 10.0 °F -0.9 °F 3.0 °F 73% 30.30 in 3.0 mi North 6.9 mph - 0.00 in Snow Light Snow
6:53 PM 9.0 °F -3.2 °F -0.0 °F 67% 30.32 in 9.0 mi NNE 8.1 mph - 0.00 in   Overcast
7:27 PM 9.0 °F -2.2 °F -0.9 °F 64% 30.27 in 10.0 mi NNE 6.9 mph - N/A   Mostly Cloudy
7:53 PM 9.0 °F -3.2 °F -2.0 °F 61% 30.31 in 10.0 mi NE 8.1 mph - N/A   Overcast
8:53 PM 8.1 °F -4.3 °F -2.9 °F 61% 30.34 in 10.0 mi North 8.1 mph - N/A   Overcast
9:53 PM 8.1 °F -4.3 °F -4.0 °F 58% 30.37 in 10.0 mi NNE 8.1 mph - N/A   Clear
10:53 PM 6.1 °F -7.8 °F -6.0 °F 58% 30.35 in 10.0 mi NNE 9.2 mph - N/A   Clear
11:53 PM 5.0 °F -8.1 °F -6.0 °F 61% 30.37 in 10.0 mi NNE 8.1 mph - N/A   Mostly Cloudy